THORAD DELTA 1 DEB, 8137

Orbit data source: Space-Track

THORAD DELTA 1 DEB, 8137 is space debris in SSO originally from a launch on Fri, 15 Nov 1974 UTC launched from the Air Force Western Test Range (AFWTR). Debris objects in space refer to the collection of defunct objects orbiting the Earth. Examples of debris include non-operational satellites, rocket bodies, and fragments generated from explosions, collisions, or faulty payload assembly.

Loading next visibility...
Identifier
8137, 1974-089F
Orbit
SSO
Country
Flag of USUS
Related business
Manufacturer
Unknown
Mission
Spacecraft
Bus & Motor
Unknown
Mass
Unknown
Launch date (UTC)
1974-11-15 (52 years ago)
Launch vehicle
Unknown
Launch site
Air Force Western Test Range (AFWTR)
Object type
Payload
Rocket body
Debris
Shape & HBR
Unknown shape, 0.1 m
Radar Cross Section
Medium (>0.1 m² and <1 m²)

Expand to show TLE details & history
Last TLE update: 2 days ago

TLE from 2 days ago
0 THORAD DELTA 1 DEB
1  8137U 74089F   26171.29276881  .00000184  00000-0  11127-2 0  9994
2  8137 101.2126 105.4608 0089422 166.8021 347.1144 12.71196509391128
Epoch: 2026-06-20T07:01Z
TLE epoch observation values (Epoch: 2026-06-20T07:01:35.225Z)
Latitude
25.8076°
Longitude
-82.97211°
Altitude
1,312.365 km
Speed
7.234 km/s
True Right ascension
19h 23m 44s
True Declination
25° 40' 58"
Sunlit
Object was in full shadow at epoch
Visualization orbit readout
Latitude
Unknown
Longitude
Unknown
Altitude
Unknown
Speed
Unknown
Apparent Right ascension
Unknown
Apparent Declination
Unknown
Sunlit
N/A
Visualization observer readout
Local Sidereal Time
01:06:00
Azimuth
Unknown
Elevation
Unknown
Doppler factor
Unknown
Orbital elements
Apogee altitude
1,443.884 km
Perigee altitude
1,305.231 km
Semi-major axis
7,752.694 km
Eccentricity
0.00894
Inclination
101.2126°
RAAN
105.4608°
Arg. of periapsis
166.8021°
True anomaly
346.88337°
Mean anomaly
347.1144°
Eccentric anomaly
346.99914°
Mean motion
3.17954 °/min
Orbital period
113.22 mins
BSTAR
0.0011127
Loading maneuver chart data...
Computing Atmospheric mass density...

Documentation

Showing up to 5 results
|